Погода в Баджаве

Индонезия     8°47′15″S   120°58′35″E
темп.,
°C
ветер,
м/с
пор.,
м/с
влажн.,
%
обл.,
%
осадки,
мм/ч
давл.,
гПа
погр.,
м
7 марта, вс
вс723:00+21всв0096100 3.1 101126
02:00+20ююз1197100 3.9 101028
05:00+20зюз119897 1.6 100945
08:00+23ю129396 3.9 1011192
11:00+26ююз118219 3.8 1010667
14:00+26зюз018540 11.4 1008589
17:00+24ююв0192100 7.2 1008211
20:00+21юз1195100 10.5 101024
8 марта, пн
пн823:00+20з119386 0.8 101124
02:00+20зюз119489 0.9 100932
05:00+19з019798 2.3 100928
08:00+22сз119189 4.9 1011107
11:00+26вюв018432 4.4 1011659
14:00+25ююв118754 12.3 1008482
17:00+23вюв0192100 4.9 1008208
20:00+20св0195100 6.6 101024
9 марта, вт
вт923:00+19с0195100 0.0 101125
02:00+19зюз019498 0.0 100924
05:00+19юз019497 0.0 100924
08:00+23ююз118769 0.0 1011226
11:00+29ю11623 0.1 10111110
14:00+26всв018336 3.9 1008634
17:00+24ссв018974 2.4 1008398
20:00+21в019846 2.8 101026
10 марта, ср
ср1023:00+20ю119867 1.6 101132
02:00+19юз019784 2.4 100924
05:00+19зюз1197100 0.0 100925
08:00+23всв018769 0.0 1011221
11:00+27вюв127043 0.6 10101004
14:00+22зсз019471 2.7 100882
17:00+23вюв1193100 2.6 1008238
20:00+21с0197100 5.9 101024
11 марта, чт
чт1123:00+20зюз0196100 1.4 101126
02:00+20зюз0196100 1.4 100928
05:00+19ссз0195100 0.1 100925
08:00+22всв0189100 0.1 1011155
11:00+26ююв1177100 2.3 1010776
14:00+23юв0193100 8.4 1008325
17:00+22ссв0196100 7.6 1008129
20:00+20св1198100 10.3 101028